Regional Weather Roundup
Issued by NWS Goodland, KS

Home | Current Version | Previous Version | Graphics & Text | Print | Product List | Glossary On
Versions: 1 2 3 4 5 6 7 8 9 10 11 12 13 14 15 16 17 18 19 20 21 22 23 24 25 26 27 28 29 30 31 32 33 34 35 36 37 38 39 40 41 42 43 44 45 46 47 48 49 50
000
ASUS43 KGLD 211808
RWRGLD

GOODLAND FORECAST AREA HOURLY WEATHER ROUNDUP
NATIONAL WEATHER SERVICE GOODLAND KS
1100 AM MST TUE FEB 21 2017

...OFFICIAL OBSERVATIONS...

CITY           SKY/WX    TMP DP  RH WIND       PRES   REMARKS
GOODLAND KS    SUNNY     71  26  18 N7        30.02F
HILL CITY KS   SUNNY     68  22  17 SW16      30.01F
IMPERIAL NEB   SUNNY     70  24  17 W13       29.97F
MCCOOK NEB     SUNNY     67  27  22 W8        29.97F
AKRON CO       SUNNY     67  23  19 W29G36    30.02F
BURLINGTON CO  SUNNY     73  22  14 NW15      30.06R
LIMON CO       SUNNY     69  13  11 NW21G31   30.08S
$$

...UNOFFICIAL OBSERVATIONS...

CITY           SKY/WX    TMP DP  RH WIND       PRES   REMARKS
LENORA KS        N/A     68  32  26 S12         N/A
NORTON KS      SUNNY     73   9   8 S15       29.96F
SHARON SPRINGS   N/A     69  29  22 CALM        N/A
TRENTON NEB      N/A     71  32  23 SW6         N/A
KIT CARSON CO    N/A     70  26  19 MISG        N/A
$$



USA.gov is the U.S. government's official web portal to all federal, state and local government web resources and services.